www.pogodaiklimat.ru

Погода и климат >> Архив погоды >> Россия >> Якутия >> Усть-Мома


АРХИВ ПОГОДЫ в Усть-Моме

Время (UTC), дата Ветер
(напр.,м/с)
 
Видим.   Явления Облачность Т
(С)
Тd
(С)
f
(%)
Тe
(С)
Тes
(С)
Комфортность P
(гПа)
Po
(гПа)
Тmin
(С)
Tmax
(С)
R
(мм)
R24
(мм)
S
(см)
12 17.01 штиль 0 2000 м дымка ясно -52.0 -54.6 73 -52 -52 опасность
обморожения
1033.3 1002.6
15 17.01 штиль 0 2000 м дымка ясно -52.3 -54.6 76 -52 -52 опасность
обморожения
1032.4 1001.7
18 17.01 штиль 0 2000 м дымка ясно -52.5 -54.6 78 -53 -53 опасность
обморожения
1032.1 1001.3
21 17.01 штиль 0 2000 м дымка ясно -52.4 -54.6 77 -52 -52 опасность
обморожения
1031.9 1001.2 -52.5 19
00 18.01 штиль 0 1000 м дымка ясно -52.1 -54.6 74 -52 -52 опасность
обморожения
1031.7 1001.0
03 18.01 штиль 0 4000 м дымка ясно -50.3 -53.1 72 -50 -50 опасность
обморожения
1031.2 1000.8
06 18.01 штиль 0 2000 м дымка ясно -50.4 -53.1 73 -50 -50 опасность
обморожения
1031.2 1000.8
09 18.01 штиль 0 2000 м дымка ясно -50.6 -53.1 75 -51 -51 опасность
обморожения
1031.9 1001.3 -50.3
12 18.01 штиль 0 2000 м дымка ясно -51.2 -53.1 80 -51 -51 опасность
обморожения
1032.4 1001.8
15 18.01 штиль 0 2000 м дымка ясно -51.7 -54.6 71 -52 -52 опасность
обморожения
1032.1 1001.4
18 18.01 штиль 0 2000 м дымка ясно -51.7 -54.6 71 -52 -52 опасность
обморожения
1032.2 1001.5
21 18.01 штиль 0 2000 м дымка ясно -51.8 -54.6 72 -52 -52 опасность
обморожения
1032.3 1001.6 -51.8 19
00 19.01 штиль 0 2000 м дымка 3/0
[Ci fib]
-51.7 -54.6 71 -52 -52 опасность
обморожения
1032.6 1001.9 -51.9
03 19.01 штиль 0 4000 м дымка ясно -49.7 -51.8 78 -50 -50 опасность
обморожения
1031.6 1001.2
06 19.01 штиль 0 4000 м дымка 3/0
[Ci fib]
-49.6 -51.8 77 -50 -50 опасность
обморожения
1031.5 1001.1
09 19.01 штиль 0 2000 м дымка 3/0
[Ci fib]
-50.2 -53.1 71 -50 -50 опасность
обморожения
1031.3 1000.9 -49.6
12 19.01 штиль 0 2000 м дымка ясно -51.2 -53.1 80 -51 -51 опасность
обморожения
1031.1 1000.5
15 19.01 штиль 0 50 км дымка ясно -51.3 -53.1 81 -51 -51 опасность
обморожения
1030.0 999.4
18 19.01 штиль 0 2000 м дымка ясно -51.3 -53.1 81 -51 -51 опасность
обморожения
1029.6 999.0
21 19.01 штиль 0 2000 м дымка 4/0
[Ci fib]
-49.8 -51.8 79 -50 -50 опасность
обморожения
1028.6 998.2 -51.3 19
00 20.01 штиль 0 4000 м дымка 3/0
[Ci fib]
-50.1 -53.1 70 -50 -50 опасность
обморожения
1027.8 997.5 -50.1
03 20.01 штиль 0 4000 м дымка 3/0
[Ci fib]
-48.3 -50.6 77 -48 -48 опасность
обморожения
1026.1 996.1
06 20.01 штиль 0 4000 м дымка 3/0
[Ci fib]
-48.4 -50.6 78 -48 -48 опасность
обморожения
1025.5 995.5
09 20.01 штиль 0 2000 м дымка 3/0
[Ci fib]
-48.6 -51.8 69 -49 -49 опасность
обморожения
1025.1 995.0 -48.3
12 20.01 штиль 0 2000 м дымка 4/0
[Ci fib]
-48.6 -51.8 69 -49 -49 опасность
обморожения
1024.8 994.7
15 20.01 штиль 0 2000 м дымка 4/0
[Ci fib]
-49.2 -51.8 74 -49 -49 опасность
обморожения
1023.5 993.4
18 20.01 штиль 0 2000 м дымка 4/0
[Ci fib]
-48.4 -50.6 78 -48 -48 опасность
обморожения
1023.2 993.2
21 20.01 штиль 0 2000 м дымка 4/0
[Ci fib]
-47.1 -49.6 75 -47 -47 опасность
обморожения
1022.9 993.0 -49.2 19
00 21.01 штиль 0 2000 м дымка 4/0
[Ci fib]
-46.2 -48.6 76 -46 -46 опасность
обморожения
1023.1 993.4
03 21.01 штиль 0 4000 м дымка 10/0
[Ac trans Ci fib]
-42.2 -45.0 74 -42 -42 опасность
обморожения
1021.8 992.6
06 21.01 штиль 0 4000 м дымка 10/0
[Ac trans Ci fib]
-39.8 -42.8 73 -40 -40 опасность
обморожения
1021.9 993.0
09 21.01 штиль 0 4000 м дымка 10/0
[Ac trans Ci fib]
-37.9 -40.9 73 -38 -38 опасность
обморожения
1022.6 993.9 -37.9
12 21.01 штиль 0 4000 м дымка 10/0
[Ac trans Ci fib]
-29.0 -41.2 30 -29 -29 1023.1 994.3
15 21.01 штиль 0 4000 м дымка 10/0
[Ac trans Ci fib]
-39.0 -41.2 79 -39 -39 опасность
обморожения
1023.1 994.3
18 21.01 штиль 0 4000 м дымка 10/0
[Ac trans Ci fib]
-38.0 -40.3 79 -38 -38 опасность
обморожения
1024.4 995.7
21 21.01 штиль 0 4000 м дымка 6/0
[Ci fib]
-39.0 -41.2 79 -39 -39 опасность
обморожения
1026.5 997.5 -39.0 19
00 22.01 штиль 0 20 км 4/0
[Ci fib]
-39.6 -41.7 80 -40 -40 опасность
обморожения
1028.4 999.3 -39.6
03 22.01 штиль 0 20 км 6/0
[Ci fib]
-38.8 -41.2 78 -39 -39 опасность
обморожения
1029.5 1000.5
06 22.01 штиль 0 50 км 9/0
[Ac trans Ci fib]
-37.4 -39.5 81 -37 -37 опасность
обморожения
1031.4 1002.5
09 22.01 штиль 0 50 км 10/0
[Ac trans Cs]
-35.7 -38.1 78 -36 -36 опасность
обморожения
1032.7 1004.0 -35.6
12 22.01 штиль 0 50 км 10/0
[Ac trans Cs]
-35.1 -37.4 79 -35 -35 опасность
обморожения
1033.7 1005.1
15 22.01 штиль 0 50 км 10/0
[Ac trans Ci fib]
-35.7 -38.1 78 -36 -36 опасность
обморожения
1034.6 1005.9
18 22.01 штиль 0 50 км 10/0
[Ac trans Cs]
-36.7 -38.8 81 -37 -37 опасность
обморожения
1035.1 1006.2
21 22.01 штиль 0 50 км 6/0
[Ac trans Ci fib]
-37.0 -39.1 81 -37 -37 опасность
обморожения
1035.4 1006.5 -37.0 19
00 23.01 штиль 0 50 км 3/0
[Ci fib]
-38.5 -40.8 79 -39 -39 опасность
обморожения
1035.9 1006.8 -38.6
03 23.01 штиль 0 50 км 4/0
[Ac trans Ci fib]
-33.8 -36.2 79 -34 -34 опасность
обморожения
1034.9 1006.4
06 23.01 штиль 0 50 км 3/0
[Ci fib]
-36.7 -38.8 81 -37 -37 опасность
обморожения
1035.1 1006.2
09 23.01 штиль 0 50 км 3/0
[Ci fib]
-38.2 -40.3 80 -38 -38 опасность
обморожения
1035.3 1006.3 -33.7
12 23.01 штиль 0 50 км ясно -39.1 -41.2 80 -39 -39 опасность
обморожения
1035.1 1006.0
15 23.01 штиль 0 50 км ясно -39.9 -42.2 78 -40 -40 опасность
обморожения
1034.5 1005.3
18 23.01 штиль 0 50 км ясно -40.4 -42.7 78 -40 -40 опасность
обморожения
1034.0 1004.8
21 23.01 штиль 0 50 км ясно -40.4 -42.7 78 -40 -40 опасность
обморожения
1033.2 1004.0 -40.5 19
00 24.01 штиль 0 10 км дымка 3/0
[Ci fib]
-40.7 -42.7 81 -41 -41 опасность
обморожения
1032.8 1003.4 -40.7
03 24.01 штиль 0 20 км 3/0
[Ci fib]
-37.6 -39.9 79 -38 -37 опасность
обморожения
1030.9 1002.1
06 24.01 штиль 0 50 км 3/0
[Ci fib]
-37.6 -39.9 79 -38 -38 опасность
обморожения
1030.1 1001.3
09 24.01 штиль 0 50 км 3/0
[Ci fib]
-39.4 -41.7 79 -39 -39 опасность
обморожения
1030.1 1001.1 -37.6

 

Местоположение метеостанции Усть-Мома (Якутия, Россия): широта 66.45 долгота 143.20 высота над уровнем моря 196 м.

В архиве по умолчанию представлена погода в Усть-Моме за последнюю неделю. Архивные данные за месяц целиком и за предыдущие месяцы, начиная с января 2011 года, Вы можете получить, выбрав интересующий диапазон дат из раскрывающегося списка и нажав кнопку "Ввод!".


*Определитесь, кто Вы:
робот инопланетянин человек

Внимание! Время в таблицах - всемирное. Для получения местного времени необходимо прибавить поправку, которая равна 11 ч.

Смотрите также архив погоды в соседних городах и на ближайших метеорологических станциях:

Погода в Усть-Нере (Якутия, Россия) (214 км)
Погода в Белой Горе (Якутия, Россия) (266 км)
Погода в Юртах (Якутия, Россия) (275 км)
Погода в Усть-Чарках (Якутия, Россия) (294 км)
Погода в Делянкире (Якутия, Россия) (312 км)
Погода в Агаякане (Якутия, Россия) (354 км)
Погода в Депутатском (Якутия, Россия) (355 км)
Погода в Оймяконе (Якутия, Россия) (356 км)
Погода в Зырянке (Якутия, Россия) (356 км)
Погода в Иэме (Якутия, Россия) (360 км)

Пояснения к столбцам:

Ветер - указаны скорость ветра в м/с - средняя за 10 мин, порывы в срок и между сроками (в фигурных скобках) и направление, откуда дует ветер: С - северный, СВ - северо-восточный, В - восточный, ЮВ - юго-восточный, Ю - южный, ЮЗ - юго-западный, З - западный, СЗ - северо-западный.
Видимость - горизонтальная дальность видимости в метрах или километрах. При видимости от 1 до 10 км при отсутствии осадков обычно наблюдается дымка, при ухудшении видимости до 1 км и менее - туман. В сухую погоду видимость может ухудшаться дымом, пылью или мглою.
Явления - указаны атмосферные явления, наблюдавшиеся в срок или в последний час перед сроком; фигурными скобками обозначены явления, наблюдавшиеся между сроками (за 1-3 часа до срока); квадратными скобками обозначены град или гололедные отложения с указанием их диаметра в мм.
Облачность - указаны через наклонную черту общая и нижняя облачность в баллах и высота нижней границы облаков в метрах; квадратными скобками обозначены формы облаков: Ci - перистые, Cs - перисто-слоистые, Cc - перисто-кучевые, Ac - высококучевые, As - высокослоистые, Sc - слоисто-кучевые, Ns - слоисто-дождевые, Cu - кучевые, Cb - кучево-дождевые. Подробнее классификацию облаков см. в Атласе облаков (PDF).
T - Температура воздуха - температура, измеренная на высоте 2 м над землей.
Td - Температура точки росы - температура, при понижении до которой содержащийся в воздухе водяной пар достигнет насыщения.
f - Относительная влажность воздуха - влажноcть воздуха, измеренная на высоте 2 м над землей.
Te - Эффективная температура - температура, которую ощущает одетый по сезону человек в тени. Характеристика душности погоды. При расчете учитывается влияние влажности воздуха и скорости ветра на теплоощущения человека.
Tes - Эффективная температура на солнце - температура, которую ощущает человек, с поправкой на солнечный нагрев. Характеристика знойности погоды. Зависит от высоты солнца над горизонтом, облачности и скорости ветра. Ночью, в пасмурную погоду, а также при ветре 12 м/с и более поправка равна нулю.
P - Атмосферное давление - приведенное к уровню моря атмосферное давление.
Po - Атмосферное давление - измеренное на уровне метеостанции атмосферное давление.
Tmin - Минимальная температура - минимум температуры воздуха на высоте 2 м над землей.
Tmax - Максимальная температура - максимум температуры воздуха на высоте 2 м над землей.
R - Количество осадков - Количество выпавших осадков за период времени, мм. При наведении курсора мыши на число - период времени, за который выпало указанное количество осадков.
R24 - Количество осадков - Количество выпавших осадков за 24 часа, мм.
S - Снежный покров - Высота снежного покрова, см. При наведении курсора мыши на число - состояние снежного покрова и степень покрытия местности в баллах.